| time (UTC) | temp C | wind direction | speed KPH | gust KPH | rain 1hr cm | rain 24hr cm | rain mn cm | humidity % | barometer mb |
| 20260506004529 | 21 | 122 | 3.2 | 0.0 | 0.00 | 0.00 | 0.00 | 41 | 1013.5 |
| 20260506003030 | 21 | 20 | 4.8 | 0.0 | 0.00 | 0.00 | 0.00 | 41 | 1013.6 |
| 20260506001522 | 21 | 86 | 1.6 | 0.0 | 0.00 | 0.00 | 0.00 | 41 | 1013.7 |
| 20260506000117 | 20 | 301 | 0.0 | 0.0 | 0.00 | 0.00 | 0.00 | 44 | 1013.7 |
| 20260505234510 | 18 | 101 | 0.0 | 0.0 | 0.00 | 0.00 | 0.00 | 49 | 1013.9 |
| 20260505233034 | 17 | 295 | 0.0 | 0.0 | 0.00 | 0.00 | 0.00 | 52 | 1014.1 |
| 20260505231528 | 16 | 284 | 0.0 | 0.0 | 0.00 | 0.00 | 0.00 | 55 | 1014.2 |
| 20260505230016 | 15 | 255 | 0.0 | 0.0 | 0.00 | 0.00 | 0.00 | 58 | 1014.3 |
| 20260505224525 | 15 | 271 | 0.0 | 0.0 | 0.00 | 0.00 | 0.00 | 60 | 1014.3 |
| 20260505223018 | 13 | 293 | 0.0 | 0.0 | 0.00 | 0.00 | 0.00 | 64 | 1014.4 |
| 20260505221517 | 12 | 287 | 0.0 | 0.0 | 0.00 | 0.00 | 0.00 | 68 | 1014.6 |
| 20260505220017 | 12 | 276 | 0.0 | 0.0 | 0.00 | 0.00 | 0.00 | 73 | 1014.6 |
| 20260505214611 | 11 | 225 | 0.0 | 0.0 | 0.00 | 0.00 | 0.00 | 76 | 1014.5 |
| 20260505213017 | 10 | 175 | 0.0 | 0.0 | 0.00 | 0.00 | 0.00 | 78 | 1014.4 |
| 20260505211527 | 9 | 175 | 0.0 | 0.0 | 0.00 | 0.00 | 0.00 | 78 | 1014.3 |
| 20260505210012 | 9 | 175 | 0.0 | 0.0 | 0.00 | 0.00 | 0.00 | 78 | 1014.3 |
| 20260505204509 | 8 | 169 | 0.0 | 0.0 | 0.00 | 0.00 | 0.00 | 78 | 1014.2 |
| 20260505203010 | 8 | 132 | 0.0 | 0.0 | 0.00 | 0.00 | 0.00 | 78 | 1014.1 |
| 20260505201510 | 8 | 280 | 0.0 | 0.0 | 0.00 | 0.00 | 0.00 | 78 | 1013.9 |
| 20260505194504 | 8 | 150 | 0.0 | 0.0 | 0.00 | 0.00 | 0.00 | 77 | 1013.8 |
| 20260505193023 | 8 | 149 | 0.0 | 0.0 | 0.00 | 0.00 | 0.00 | 77 | 1013.7 |
| 20260505191503 | 8 | 300 | 0.0 | 0.0 | 0.00 | 0.00 | 0.00 | 76 | 1013.7 |
| 20260505190021 | 8 | 295 | 0.0 | 0.0 | 0.00 | 0.00 | 0.00 | 76 | 1013.5 |
| 20260505184559 | 8 | 268 | 0.0 | 0.0 | 0.00 | 0.00 | 0.00 | 75 | 1013.3 |
| 20260505183003 | 9 | 269 | 0.0 | 0.0 | 0.00 | 0.00 | 0.00 | 75 | 1013.3 |
| 20260505174524 | 10 | 280 | 0.0 | 0.0 | 0.00 | 0.00 | 0.00 | 72 | 1013.2 |
| 20260505173052 | 10 | 260 | 0.0 | 0.0 | 0.00 | 0.00 | 0.00 | 71 | 1013.2 |
| 20260505171559 | 10 | 272 | 0.0 | 0.0 | 0.00 | 0.00 | 0.00 | 70 | 1013.1 |
| 20260505170013 | 10 | 186 | 0.0 | 0.0 | 0.00 | 0.00 | 0.00 | 69 | 1013.1 |
| 20260505164504 | 10 | 285 | 0.0 | 0.0 | 0.00 | 0.00 | 0.00 | 68 | 1013.1 |
| 20260505163012 | 11 | 255 | 0.0 | 0.0 | 0.00 | 0.00 | 0.00 | 67 | 1013.1 |
| 20260505161509 | 11 | 350 | 0.0 | 0.0 | 0.00 | 0.00 | 0.00 | 65 | 1013.0 |
| 20260505153108 | 12 | 314 | 0.0 | 0.0 | 0.00 | 0.00 | 0.00 | 62 | 1013.1 |
| 20260505151532 | 12 | 249 | 0.0 | 0.0 | 0.00 | 0.00 | 0.00 | 60 | 1012.9 |
| 20260505124600 | 13 | 204 | 0.0 | 0.0 | 0.00 | 0.00 | 0.13 | 58 | 1012.8 |
| 20260505123000 | 13 | 264 | 0.0 | 0.0 | 0.00 | 0.00 | 0.13 | 56 | 1012.7 |
| 20260505121614 | 13 | 209 | 0.0 | 0.0 | 0.00 | 0.00 | 0.13 | 55 | 1012.7 |
| 20260505120016 | 13 | 259 | 0.0 | 0.0 | 0.00 | 0.00 | 0.13 | 54 | 1012.7 |
| 20260505114520 | 14 | 243 | 0.0 | 0.0 | 0.00 | 0.00 | 0.13 | 53 | 1012.7 |
| 20260505113106 | 15 | 276 | 0.0 | 0.0 | 0.00 | 0.00 | 0.13 | 50 | 1012.7 |
| 20260505111538 | 15 | 281 | 0.0 | 0.0 | 0.00 | 0.00 | 0.13 | 48 | 1012.3 |
| 20260505101522 | 17 | 248 | 0.0 | 0.0 | 0.00 | 0.00 | 0.13 | 40 | 1011.5 |
| 20260505100055 | 17 | 283 | 0.0 | 0.0 | 0.00 | 0.00 | 0.13 | 39 | 1011.4 |
| 20260505094608 | 18 | 254 | 0.0 | 0.0 | 0.00 | 0.00 | 0.13 | 37 | 1011.2 |
| 20260505091514 | 19 | 224 | 0.0 | 0.0 | 0.00 | 0.00 | 0.13 | 31 | 1011.1 |
| 20260505090017 | 20 | 224 | 0.0 | 0.0 | 0.00 | 0.00 | 0.13 | 31 | 1010.8 |
| 20260505084524 | 20 | 224 | 0.0 | 0.0 | 0.00 | 0.00 | 0.13 | 30 | 1010.6 |
| 20260505083005 | 21 | 263 | 0.0 | 0.0 | 0.00 | 0.00 | 0.13 | 27 | 1010.7 |
| 20260505081527 | 22 | 273 | 0.0 | 0.0 | 0.00 | 0.00 | 0.13 | 27 | 1010.8 |
| 20260505080030 | 22 | 147 | 0.0 | 0.0 | 0.00 | 0.00 | 0.13 | 27 | 1010.6 |
| 20260505074529 | 23 | 256 | 1.6 | 0.0 | 0.00 | 0.00 | 0.13 | 25 | 1010.6 |
| 20260505073006 | 23 | 212 | 0.0 | 0.0 | 0.00 | 0.00 | 0.13 | 26 | 1010.6 |
| 20260505071602 | 23 | 159 | 1.6 | 0.0 | 0.00 | 0.00 | 0.13 | 27 | 1010.5 |
| 20260505064506 | 23 | 309 | 1.6 | 0.0 | 0.00 | 0.00 | 0.13 | 25 | 1010.5 |
| 20260505063004 | 23 | 116 | 0.0 | 0.0 | 0.00 | 0.00 | 0.13 | 24 | 1010.6 |
| 20260505061503 | 23 | 276 | 1.6 | 0.0 | 0.00 | 0.00 | 0.13 | 26 | 1010.6 |
| 20260505060007 | 23 | 261 | 1.6 | 0.0 | 0.00 | 0.00 | 0.13 | 25 | 1010.6 |
| 20260505054510 | 23 | 271 | 1.6 | 0.0 | 0.00 | 0.00 | 0.13 | 25 | 1010.6 |
| 20260505053024 | 23 | 264 | 3.2 | 0.0 | 0.00 | 0.00 | 0.13 | 26 | 1010.6 |
| 20260505051502 | 23 | 253 | 0.0 | 0.0 | 0.00 | 0.00 | 0.13 | 24 | 1010.6 |
| 20260505041524 | 23 | 319 | 3.2 | 0.0 | 0.00 | 0.00 | 0.13 | 25 | 1010.6 |
| 20260505034559 | 22 | 211 | 3.2 | 0.0 | 0.00 | 0.00 | 0.13 | 27 | 1010.9 |
| 20260505033103 | 22 | 276 | 3.2 | 0.0 | 0.00 | 0.00 | 0.13 | 27 | 1011.0 |
| 20260505031516 | 21 | 250 | 3.2 | 0.0 | 0.00 | 0.00 | 0.13 | 27 | 1011.2 |
| 20260505030005 | 21 | 276 | 4.8 | 0.0 | 0.00 | 0.00 | 0.13 | 28 | 1011.4 |
| 20260505024529 | 22 | 186 | 3.2 | 0.0 | 0.00 | 0.00 | 0.13 | 28 | 1011.5 |
| 20260505023105 | 21 | 310 | 1.6 | 0.0 | 0.00 | 0.00 | 0.13 | 28 | 1011.5 |
| 20260505021608 | 20 | 294 | 3.2 | 0.0 | 0.00 | 0.00 | 0.13 | 29 | 1011.5 |
| 20260505020036 | 20 | 250 | 4.8 | 0.0 | 0.00 | 0.00 | 0.13 | 28 | 1011.7 |
| 20260505014526 | 20 | 271 | 3.2 | 0.0 | 0.00 | 0.00 | 0.13 | 31 | 1011.7 |
| 20260505013004 | 19 | 142 | 3.2 | 0.0 | 0.00 | 0.00 | 0.13 | 33 | 1011.4 |
| 20260505011502 | 18 | 314 | 3.2 | 0.0 | 0.00 | 0.00 | 0.13 | 35 | 1011.6 |
| 20260505010103 | 18 | 249 | 3.2 | 0.0 | 0.00 | 0.00 | 0.13 | 40 | 1011.4 |